Tracking 25405 objects as of 26-Jan-2022
HD Live streaming from Space Station
objects crossing your sky now

SL-3 R/B

Track SL-3 R/B now!
10-day predictions
SL-3 R/B is classified as:


NORAD ID: 12904
Int'l Code: 1981-103B
Perigee: 536.2 km
Apogee: 573.3 km
Inclination: 81.2 °
Period: 95.6 minutes
Semi major axis: 6925 km
RCS: 5.653 m2 (large)
Launch date: October 13, 1981
Source: Commonwealth of Independent States (former USSR) (CIS)
Launch site: PLESETSK MISSILE AND SPACE COMPLEX (PKMTR)

Note: This is a ROCKET BODY
aabbcc
Your satellite tracking list
Your tracking list is empty




NASA's NSSDC Master Catalog

Two Line Element Set (TLE):
1 12904U 81103B   22026.58300557  .00000411  00000-0  26219-4 0  9994
2 12904  81.1780 150.5479 0026748 278.9550  80.8646 15.06271500746069
Source of the keplerian elements: AFSPC